Regional Weather Roundup
Issued by NWS

Home | Current Version | Previous Version | Text Only | Print | Product List | Glossary On
Versions: 1 2 3 4 5 6 7 8 9 10 11 12 13 14 15 16 17 18 19 20 21 22 23 24 25 26 27
000
ASPQ40 PGUM 242112
RWRPQ
WEATHER ROUNDUP FOR THE MARIANAS AND MICRONESIA
NATIONAL WEATHER SERVICE TIYAN GU
700 AM CHST SAT FEB 25 2017

GUZ001>004-242200-
MARIANA ISLANDS-

CITY           SKY/WX    TMP DP  RH WIND       PRES   REMARKS
GUAM AIRPORT   CLEAR     79  73  83 E12       29.92R
ANDERSEN AFB   PTCLDY    77  72  83 E16       29.93R
ROTA AIRPORT   PTCLDY    77  72  83 E15       29.93
TINIAN AP      PTCLDY    79  73  83 E12       29.91R
SAIPAN AP      MOCLDY    79  73  83 E14       29.93R

$$

PMZ161-242200-
REPUBLIC OF PALAU-

CITY           SKY/WX    TMP DP  RH WIND       PRES   REMARKS
KOROR AP       NOT AVBL
KOROR WSO      LGT RAIN  79  75  89 NE7       29.83R

$$

PMZ171>174-242200-
FEDERATED STATES OF MICRONESIA-

CITY           SKY/WX    TMP DP  RH WIND       PRES   REMARKS
YAP AIRPORT    CLOUDY    79  75  89 NE14G21   29.80R
CHUUK AP       PTSUNNY   82  79  89 E13       29.83R HX  93
POHNPEI AP     NOT AVBL
POHNPEI WSO    NOT AVBL
KOSRAE AP      NOT AVBL

$$

PMZ181-242200-
REPUBLIC OF THE MARSHALL ISLANDS-

CITY           SKY/WX    TMP DP  RH WIND       PRES   REMARKS
KWAJALEIN AP   MOSUNNY   82  73  74 E21       29.88R
MAJURO AP      CLOUDY    82  75  78 NE24      29.85
MAJURO WSO     PTSUNNY   82  77  83 NE16      29.84R HX  91

$$





USA.gov is the U.S. government's official web portal to all federal, state and local government web resources and services.